RYR55H EDXW-EDDL

Flight info

Callsign RYR55H
Flight time 1h 1m
Altitude 34000
Route OLDIP1B OLDIP DCT ABFAD DCT GASTU DCT PARYD/N0456F350 DCT ATPAQ/N0456F340 Z529 HMM T851 HALME HALME1A
Aircraft B738/M-SDE2E3FGHIRWXY/LB1

Departure

Time 2026-05-05 13:53
Airport Westerland Sylt Airport (EDXW)

Arrival

Time 2026-05-05 14:55
Airport Düsseldorf Airport (EDDL)
Time Latitude Longitude Altitude Speed Heading
2026-05-05 13:35 54.91387 8.33131 57 ft 0 kts 269°
2026-05-05 13:43 54.91387 8.33150 57 ft 2 kts 264°
2026-05-05 13:44 54.91389 8.33179 51 ft 2 kts 257°
2026-05-05 13:44 54.91395 8.33206 50 ft 2 kts 240°
2026-05-05 13:44 54.91406 8.33227 52 ft 2 kts 203°
2026-05-05 13:44 54.91421 8.33231 51 ft 2 kts 165°
2026-05-05 13:45 54.91425 8.33229 52 ft 0 kts 159°
2026-05-05 13:47 54.91421 8.33231 51 ft 3 kts 160°
2026-05-05 13:47 54.91361 8.33247 57 ft 11 kts 183°
2026-05-05 13:47 54.91287 8.33200 53 ft 11 kts 204°
2026-05-05 13:48 54.91210 8.33180 55 ft 11 kts 181°
2026-05-05 13:48 54.91173 8.33181 57 ft 4 kts 179°
2026-05-05 13:48 54.91144 8.33181 50 ft 4 kts 180°
2026-05-05 13:48 54.91093 8.33181 57 ft 14 kts 180°
2026-05-05 13:49 54.90965 8.33106 55 ft 21 kts 192°
2026-05-05 13:49 54.90833 8.33199 55 ft 21 kts 165°
2026-05-05 13:49 54.90693 8.33229 56 ft 20 kts 175°
2026-05-05 13:49 54.90558 8.33250 57 ft 19 kts 174°
2026-05-05 13:50 54.90433 8.33323 52 ft 19 kts 149°
2026-05-05 13:50 54.90335 8.33463 57 ft 18 kts 130°
2026-05-05 13:50 54.90274 8.33645 56 ft 17 kts 109°
2026-05-05 13:50 54.90247 8.33846 57 ft 17 kts 100°
2026-05-05 13:51 54.90236 8.34044 57 ft 16 kts 93°
2026-05-05 13:51 54.90245 8.34234 54 ft 16 kts 79°
2026-05-05 13:51 54.90264 8.34415 57 ft 15 kts 80°
2026-05-05 13:51 54.90282 8.34589 54 ft 14 kts 80°
2026-05-05 13:52 54.90299 8.34755 56 ft 14 kts 80°
2026-05-05 13:52 54.90315 8.34914 54 ft 13 kts 80°
2026-05-05 13:52 54.90338 8.35064 55 ft 13 kts 64°
2026-05-05 13:52 54.90387 8.35175 58 ft 10 kts 29°
2026-05-05 13:53 54.90449 8.35131 56 ft 13 kts 324°
2026-05-05 13:53 54.90716 8.34803 56 ft 89 kts 324°
2026-05-05 13:53 54.91425 8.33925 132 ft 153 kts 325°
2026-05-05 13:53 54.92330 8.32772 949 ft 165 kts 325°
2026-05-05 13:54 54.93248 8.31606 2122 ft 163 kts 327°
2026-05-05 13:54 54.94189 8.30446 2964 ft 173 kts 329°
2026-05-05 13:54 54.95220 8.29206 3495 ft 190 kts 329°
2026-05-05 13:54 54.96370 8.27815 3916 ft 210 kts 328°
2026-05-05 13:55 54.97588 8.26276 4411 ft 222 kts 321°
2026-05-05 13:55 54.98368 8.23975 5072 ft 229 kts 281°
2026-05-05 13:55 54.98134 8.21284 5724 ft 236 kts 244°
2026-05-05 13:55 54.97201 8.18870 6562 ft 235 kts 234°
2026-05-05 13:56 54.96241 8.16616 7529 ft 228 kts 235°
2026-05-05 13:56 54.95276 8.14455 8441 ft 227 kts 225°
2026-05-05 13:56 54.93906 8.13121 9161 ft 236 kts 195°
2026-05-05 13:56 54.92221 8.13161 9683 ft 259 kts 167°
2026-05-05 13:57 54.90561 8.14767 9936 ft 290 kts 140°
2026-05-05 13:57 54.89132 8.17339 10542 ft 301 kts 134°
2026-05-05 13:57 54.87736 8.20083 11280 ft 305 kts 134°
2026-05-05 13:57 54.86337 8.22872 12065 ft 308 kts 134°
2026-05-05 13:58 54.84914 8.25696 12819 ft 313 kts 134°
2026-05-05 13:58 54.83463 8.28554 13593 ft 317 kts 135°
2026-05-05 13:58 54.81989 8.31434 14280 ft 321 kts 135°
2026-05-05 13:58 54.80495 8.34339 14977 ft 325 kts 135°
2026-05-05 13:59 54.77448 8.40232 16341 ft 332 kts 136°
2026-05-05 13:59 54.75893 8.43227 17018 ft 336 kts 136°
2026-05-05 14:00 54.72730 8.49308 18352 ft 344 kts 136°
2026-05-05 14:00 54.71664 8.51354 18742 ft 346 kts 136°
2026-05-05 14:00 54.69494 8.55514 19551 ft 350 kts 136°
2026-05-05 14:00 54.67856 8.58652 20160 ft 353 kts 136°
2026-05-05 14:01 54.66202 8.61814 20746 ft 356 kts 137°
2026-05-05 14:01 54.64402 8.64766 21074 ft 361 kts 153°
2026-05-05 14:01 54.62063 8.66256 21195 ft 361 kts 179°
2026-05-05 14:01 54.59552 8.65997 21331 ft 366 kts 198°
2026-05-05 14:02 54.57125 8.64550 21457 ft 376 kts 206°
2026-05-05 14:02 54.54642 8.62793 21556 ft 390 kts 207°
2026-05-05 14:02 54.52107 8.60951 21660 ft 404 kts 207°
2026-05-05 14:02 54.49477 8.59047 21800 ft 415 kts 206°
2026-05-05 14:03 54.46789 8.57129 22175 ft 420 kts 206°
2026-05-05 14:03 54.44083 8.55227 22697 ft 421 kts 206°
2026-05-05 14:03 54.41367 8.53337 23201 ft 422 kts 206°
2026-05-05 14:03 54.38673 8.51474 23631 ft 424 kts 206°
2026-05-05 14:04 54.35926 8.49581 23985 ft 426 kts 206°
2026-05-05 14:04 54.33164 8.47681 24357 ft 429 kts 206°
2026-05-05 14:04 54.30394 8.45779 24718 ft 430 kts 206°
2026-05-05 14:04 54.27608 8.43869 25094 ft 432 kts 206°
2026-05-05 14:05 54.24810 8.41953 25429 ft 434 kts 206°
2026-05-05 14:05 54.22000 8.40031 25743 ft 436 kts 205°
2026-05-05 14:05 54.20130 8.38752 25975 ft 437 kts 205°
2026-05-05 14:05 54.17301 8.36822 26298 ft 439 kts 205°
2026-05-05 14:06 54.14457 8.34884 26632 ft 440 kts 205°
2026-05-05 14:06 54.11617 8.32952 27062 ft 439 kts 205°
2026-05-05 14:06 54.08788 8.31032 27597 ft 436 kts 205°
2026-05-05 14:06 54.05980 8.29129 28146 ft 433 kts 205°
2026-05-05 14:07 54.03188 8.27239 28618 ft 431 kts 205°
2026-05-05 14:07 54.00403 8.25355 29073 ft 430 kts 205°
2026-05-05 14:07 53.97632 8.23482 29532 ft 428 kts 206°
2026-05-05 14:07 53.94867 8.21617 29951 ft 427 kts 206°
2026-05-05 14:08 53.89305 8.17869 29937 ft 430 kts 206°
2026-05-05 14:08 53.83788 8.14169 29935 ft 424 kts 206°
2026-05-05 14:09 53.78299 8.10492 29943 ft 425 kts 206°
2026-05-05 14:09 53.72755 8.07006 29935 ft 428 kts 200°
2026-05-05 14:10 53.66987 8.04402 29933 ft 430 kts 199°
2026-05-05 14:10 53.61192 8.01901 29937 ft 430 kts 199°
2026-05-05 14:11 53.55404 7.99357 29936 ft 430 kts 199°
2026-05-05 14:11 53.49624 7.96784 29935 ft 430 kts 199°
2026-05-05 14:12 53.43853 7.94207 29933 ft 429 kts 199°
2026-05-05 14:12 53.38079 7.91633 29928 ft 429 kts 199°
2026-05-05 14:13 53.32348 7.89088 29930 ft 429 kts 199°
2026-05-05 14:13 53.26584 7.86535 29922 ft 429 kts 198°
2026-05-05 14:14 53.20819 7.83988 29917 ft 428 kts 198°
2026-05-05 14:14 53.15058 7.81451 29915 ft 428 kts 198°
2026-05-05 14:15 53.09299 7.78923 29912 ft 428 kts 198°
2026-05-05 14:15 53.03536 7.76398 29908 ft 428 kts 198°
2026-05-05 14:16 52.97771 7.73881 29907 ft 428 kts 198°
2026-05-05 14:16 52.91992 7.71364 29902 ft 430 kts 198°
2026-05-05 14:17 52.86212 7.68853 29909 ft 430 kts 198°
2026-05-05 14:17 52.80430 7.66349 29905 ft 429 kts 197°
2026-05-05 14:18 52.74650 7.63852 29908 ft 429 kts 197°
2026-05-05 14:18 52.68864 7.61360 29913 ft 429 kts 197°
2026-05-05 14:19 52.63071 7.58870 29358 ft 435 kts 197°
2026-05-05 14:19 52.60146 7.57615 28643 ft 432 kts 197°
2026-05-05 14:19 52.57240 7.56372 27826 ft 431 kts 197°
2026-05-05 14:20 52.54337 7.55131 27109 ft 429 kts 196°
2026-05-05 14:20 52.51470 7.53909 26491 ft 424 kts 196°
2026-05-05 14:20 52.48628 7.52698 25886 ft 420 kts 196°
2026-05-05 14:20 52.45847 7.51514 25309 ft 417 kts 196°
2026-05-05 14:21 52.43048 7.50324 24715 ft 414 kts 195°
2026-05-05 14:21 52.40273 7.49145 24138 ft 411 kts 195°
2026-05-05 14:21 52.37511 7.47973 23549 ft 409 kts 195°
2026-05-05 14:21 52.34759 7.46807 22881 ft 407 kts 195°
2026-05-05 14:22 52.32021 7.45648 22257 ft 404 kts 195°
2026-05-05 14:22 52.29308 7.44502 21668 ft 401 kts 195°
2026-05-05 14:22 52.26618 7.43367 21091 ft 398 kts 195°
2026-05-05 14:22 52.23947 7.42241 20527 ft 395 kts 195°
2026-05-05 14:23 52.21291 7.41122 19977 ft 393 kts 194°
2026-05-05 14:23 52.18646 7.40010 19404 ft 392 kts 194°
2026-05-05 14:23 52.16011 7.38904 18844 ft 390 kts 194°
2026-05-05 14:23 52.13393 7.37806 18295 ft 388 kts 194°
2026-05-05 14:24 52.10786 7.36714 17661 ft 387 kts 194°
2026-05-05 14:24 52.08187 7.35626 17056 ft 385 kts 194°
2026-05-05 14:24 52.05602 7.34546 16489 ft 382 kts 194°
2026-05-05 14:24 52.03037 7.33475 15933 ft 379 kts 194°
2026-05-05 14:25 52.00487 7.32412 15390 ft 377 kts 194°
2026-05-05 14:25 51.97947 7.31354 14851 ft 376 kts 194°
2026-05-05 14:25 51.95418 7.30302 14303 ft 374 kts 194°
2026-05-05 14:25 51.92906 7.29258 13756 ft 373 kts 194°
2026-05-05 14:26 51.90393 7.28216 13153 ft 372 kts 194°
2026-05-05 14:26 51.87896 7.27181 12588 ft 369 kts 194°
2026-05-05 14:26 51.85418 7.26155 12042 ft 366 kts 194°
2026-05-05 14:26 51.82994 7.25152 11517 ft 363 kts 194°
2026-05-05 14:27 51.80560 7.24142 10995 ft 359 kts 195°
2026-05-05 14:27 51.78338 7.22487 10816 ft 347 kts 214°
2026-05-05 14:27 51.76518 7.20028 10694 ft 335 kts 221°
2026-05-05 14:27 51.74854 7.17493 10573 ft 323 kts 223°
2026-05-05 14:28 51.73271 7.15022 10511 ft 310 kts 223°
2026-05-05 14:28 51.71756 7.12640 10443 ft 300 kts 223°
2026-05-05 14:28 51.70268 7.10290 10234 ft 296 kts 223°
2026-05-05 14:28 51.68809 7.07989 10046 ft 291 kts 223°
2026-05-05 14:29 51.67387 7.05739 9933 ft 282 kts 223°
2026-05-05 14:29 51.66017 7.03566 9841 ft 273 kts 223°
2026-05-05 14:29 51.64666 7.01422 9548 ft 272 kts 223°
2026-05-05 14:29 51.63321 6.99287 9244 ft 270 kts 223°
2026-05-05 14:30 51.61991 6.97181 8973 ft 268 kts 223°
2026-05-05 14:30 51.60668 6.95088 8686 ft 265 kts 223°
2026-05-05 14:30 51.59353 6.93013 8469 ft 265 kts 223°
2026-05-05 14:30 51.58586 6.91805 8338 ft 266 kts 223°
2026-05-05 14:31 51.57255 6.89710 8118 ft 269 kts 223°
2026-05-05 14:31 51.55911 6.87600 7887 ft 270 kts 223°
2026-05-05 14:31 51.54573 6.85505 7659 ft 267 kts 223°
2026-05-05 14:31 51.53240 6.83424 7415 ft 267 kts 223°
2026-05-05 14:32 51.51906 6.81348 7165 ft 267 kts 223°
2026-05-05 14:32 51.50573 6.79281 6916 ft 267 kts 223°
2026-05-05 14:32 51.49231 6.77207 6673 ft 267 kts 223°
2026-05-05 14:32 51.47899 6.75159 6428 ft 264 kts 223°
2026-05-05 14:33 51.46578 6.73135 6178 ft 262 kts 223°
2026-05-05 14:33 51.45267 6.71131 5916 ft 259 kts 223°
2026-05-05 14:33 51.43965 6.69146 5651 ft 257 kts 223°
2026-05-05 14:33 51.42673 6.67182 5403 ft 255 kts 223°
2026-05-05 14:34 51.41406 6.65263 5149 ft 253 kts 223°
2026-05-05 14:34 51.40124 6.63327 4896 ft 252 kts 223°
2026-05-05 14:34 51.38850 6.61409 4650 ft 250 kts 223°
2026-05-05 14:34 51.37584 6.59509 4385 ft 249 kts 223°
2026-05-05 14:35 51.36324 6.57622 4128 ft 248 kts 223°
2026-05-05 14:35 51.35068 6.55744 3871 ft 247 kts 223°
2026-05-05 14:35 51.33816 6.53875 3618 ft 246 kts 223°
2026-05-05 14:35 51.32567 6.52014 3369 ft 245 kts 223°
2026-05-05 14:36 51.31304 6.50201 3122 ft 245 kts 214°
2026-05-05 14:36 51.29743 6.49277 3012 ft 238 kts 182°
2026-05-05 14:36 51.28132 6.49518 2998 ft 228 kts 169°
2026-05-05 14:36 51.26608 6.49968 2979 ft 217 kts 168°
2026-05-05 14:37 51.25139 6.50450 2982 ft 214 kts 161°
2026-05-05 14:37 51.23923 6.51693 3008 ft 206 kts 129°
2026-05-05 14:37 51.23105 6.53540 2930 ft 202 kts 121°
2026-05-05 14:37 51.22479 6.55491 2768 ft 194 kts 112°
2026-05-05 14:38 51.21946 6.57470 2591 ft 195 kts 111°
2026-05-05 14:38 51.21487 6.59425 2420 ft 187 kts 94°
2026-05-05 14:38 51.21737 6.61370 2306 ft 175 kts 65°
2026-05-05 14:38 51.22331 6.63128 2049 ft 182 kts 57°
2026-05-05 14:39 51.23030 6.64804 1831 ft 181 kts 53°
2026-05-05 14:39 51.23766 6.66387 1578 ft 178 kts 51°
2026-05-05 14:39 51.24480 6.67896 1365 ft 163 kts 52°
2026-05-05 14:39 51.25129 6.69294 1083 ft 150 kts 52°
2026-05-05 14:40 51.25711 6.70543 941 ft 132 kts 51°
2026-05-05 14:40 51.26269 6.71695 724 ft 131 kts 47°
2026-05-05 14:40 51.26849 6.72878 541 ft 134 kts 49°
2026-05-05 14:40 51.27424 6.74090 448 ft 148 kts 48°
2026-05-05 14:41 51.28106 6.75511 958 ft 182 kts 50°
2026-05-05 14:41 51.28953 6.77243 1626 ft 197 kts 50°
2026-05-05 14:41 51.29803 6.78889 2146 ft 195 kts 49°
2026-05-05 14:41 51.30706 6.80617 2260 ft 208 kts 51°
2026-05-05 14:42 51.31597 6.82455 2546 ft 213 kts 53°
2026-05-05 14:42 51.32512 6.84380 2731 ft 225 kts 53°
2026-05-05 14:42 51.33466 6.86457 2993 ft 234 kts 54°
2026-05-05 14:42 51.34509 6.88712 3001 ft 263 kts 49°
2026-05-05 14:43 51.35997 6.90335 2995 ft 262 kts 17°
2026-05-05 14:43 51.37791 6.90495 2996 ft 260 kts 351°
2026-05-05 14:43 51.39442 6.89402 2993 ft 259 kts 325°
2026-05-05 14:43 51.40638 6.87246 3007 ft 264 kts 298°
2026-05-05 14:44 51.41118 6.84412 2995 ft 267 kts 271°
2026-05-05 14:44 51.40748 6.81507 3002 ft 269 kts 249°
2026-05-05 14:44 51.39998 6.78749 3003 ft 271 kts 246°
2026-05-05 14:44 51.39204 6.76002 2999 ft 272 kts 245°
2026-05-05 14:45 51.38403 6.73252 2992 ft 272 kts 245°
2026-05-05 14:45 51.37602 6.70519 2997 ft 271 kts 245°
2026-05-05 14:45 51.36800 6.67802 2991 ft 269 kts 245°
2026-05-05 14:45 51.35999 6.65106 2989 ft 267 kts 245°
2026-05-05 14:46 51.35204 6.62428 2982 ft 265 kts 245°
2026-05-05 14:46 51.34416 6.59778 2997 ft 262 kts 244°
2026-05-05 14:46 51.33418 6.57336 3009 ft 263 kts 233°
2026-05-05 14:46 51.32319 6.55016 3000 ft 268 kts 233°
2026-05-05 14:47 51.31189 6.52635 3037 ft 269 kts 233°
2026-05-05 14:47 51.30043 6.50230 2975 ft 273 kts 233°
2026-05-05 14:47 51.28901 6.47840 2990 ft 269 kts 233°
2026-05-05 14:47 51.27770 6.45482 2991 ft 266 kts 233°
2026-05-05 14:48 51.26648 6.43146 2983 ft 264 kts 233°
2026-05-05 14:48 51.25379 6.41134 2978 ft 252 kts 210°
2026-05-05 14:48 51.23765 6.40387 2981 ft 237 kts 178°
2026-05-05 14:48 51.22246 6.41055 2981 ft 221 kts 144°
2026-05-05 14:49 51.21282 6.42812 2994 ft 209 kts 114°
2026-05-05 14:49 51.20717 6.44885 2978 ft 198 kts 110°
2026-05-05 14:49 51.20219 6.46854 2985 ft 185 kts 110°
2026-05-05 14:49 51.19775 6.48759 3009 ft 185 kts 100°
2026-05-05 14:50 51.19670 6.50827 3015 ft 190 kts 91°
2026-05-05 14:50 51.19598 6.52930 3007 ft 187 kts 92°
2026-05-05 14:50 51.19524 6.54939 2990 ft 178 kts 92°
2026-05-05 14:50 51.19589 6.56888 2918 ft 178 kts 66°
2026-05-05 14:51 51.20234 6.58553 2743 ft 179 kts 57°
2026-05-05 14:51 51.20894 6.60232 2496 ft 175 kts 55°
2026-05-05 14:51 51.21579 6.61767 2283 ft 162 kts 52°
2026-05-05 14:51 51.22228 6.63150 2040 ft 150 kts 51°
2026-05-05 14:52 51.22823 6.64406 1901 ft 135 kts 51°
2026-05-05 14:52 51.23393 6.65603 1739 ft 132 kts 51°
2026-05-05 14:52 51.23762 6.66370 1614 ft 134 kts 50°
2026-05-05 14:52 51.24346 6.67603 1385 ft 143 kts 52°
2026-05-05 14:53 51.24911 6.68831 1169 ft 131 kts 51°
2026-05-05 14:53 51.25464 6.69997 972 ft 133 kts 50°
2026-05-05 14:53 51.26016 6.71161 826 ft 130 kts 50°
2026-05-05 14:53 51.26577 6.72334 673 ft 134 kts 49°
2026-05-05 14:54 51.27145 6.73502 445 ft 134 kts 48°
2026-05-05 14:54 51.27703 6.74672 292 ft 133 kts 47°
2026-05-05 14:54 51.28264 6.75837 144 ft 126 kts 49°
2026-05-05 14:54 51.28741 6.76823 134 ft 95 kts 51°
2026-05-05 14:55 51.29050 6.77476 133 ft 53 kts 52°
2026-05-05 14:55 51.29202 6.77792 135 ft 29 kts 52°
2026-05-05 14:55 51.29296 6.78002 138 ft 15 kts 69°
2026-05-05 14:55 51.29278 6.78156 138 ft 13 kts 127°
2026-05-05 14:56 51.29229 6.78208 137 ft 4 kts 163°
2026-05-05 14:56 51.29207 6.78215 136 ft 3 kts 174°
2026-05-05 14:56 51.29173 6.78200 136 ft 10 kts 215°
2026-05-05 14:56 51.29100 6.78057 136 ft 22 kts 232°
2026-05-05 14:57 51.29004 6.77855 136 ft 23 kts 232°
2026-05-05 14:57 51.28910 6.77658 136 ft 22 kts 232°
2026-05-05 14:57 51.28819 6.77467 136 ft 21 kts 232°
2026-05-05 14:57 51.28730 6.77282 136 ft 21 kts 232°
2026-05-05 14:58 51.28644 6.77101 136 ft 20 kts 232°
2026-05-05 14:58 51.28561 6.76927 136 ft 19 kts 232°
2026-05-05 14:58 51.28480 6.76758 136 ft 19 kts 232°
2026-05-05 14:58 51.28402 6.76595 136 ft 18 kts 232°
2026-05-05 14:59 51.28326 6.76437 136 ft 18 kts 232°
2026-05-05 14:59 51.28255 6.76283 136 ft 17 kts 233°
2026-05-05 14:59 51.28185 6.76136 136 ft 16 kts 232°
2026-05-05 14:59 51.28117 6.75996 136 ft 16 kts 232°
2026-05-05 15:00 51.28053 6.75862 136 ft 13 kts 230°
2026-05-05 15:00 51.28005 6.75827 136 ft 10 kts 185°
2026-05-05 15:00 51.27922 6.75820 136 ft 9 kts 182°
2026-05-05 15:00 51.27863 6.75816 136 ft 8 kts 182°
2026-05-05 15:01 51.27843 6.75818 136 ft 0 kts 164°
2026-05-05 15:01 51.27821 6.75817 136 ft 8 kts 184°
2026-05-05 15:01 51.27761 6.75811 136 ft 9 kts 182°
2026-05-05 15:01 51.27714 6.75814 136 ft 4 kts 153°
2026-05-05 15:02 51.27708 6.75855 136 ft 4 kts 95°
2026-05-05 15:02 51.27707 6.75895 136 ft 2 kts 91°
2026-05-05 15:02 51.27707 6.75910 136 ft 0 kts 91°